Location: Colorado Springs
(38.8340°N, 104.8210°W)
Time: 09:17:13
(UTC-06:00)

Tiangong 2 - Pass Details

Date: 08 October 2017
Orbit: 388 x 391 km, 42.8° (Epoch: 23 October)

Event Time Altitude Azimuth Distance (km) Brightness Sun altitude
Exits shadow 05:23:05 24° 167° (SSE) 849 2.8 -20.1°
Maximum altitude 05:23:40 26° 147° (SSE) 810 2.9 -19.9°
Drops below altitude 10° 05:26:24 10° 89° (E) 1,421 5.1 -19.4°
Sets 05:28:41 0° 76° (ENE) 2,279 6.6 -19.0°
